Overview Statistics Trail Chart Weather Telemetry Raw packets
 

This is the latest recevied weather packets stored in our database for station/object PA3FNT-13. If no packets are shown the sender has not sent any weather packets the latest 10 day(s).

<< 7 8 9 10 11 12 13 >>
Time Temp. Humidity Pressure Rain* Wind** Luminosity Snow
1788309210 27.78° C 37% 1019.9 hPa - - - -
1788308310 27.78° C 37% 1019.9 hPa - - - -
1788307409 27.78° C 37% 1020 hPa - - - -
1788306509 27.78° C 37% 1020 hPa - - - -
1788305609 28.33° C 36% 1020.1 hPa - - - -
1788304709 28.33° C 36% 1020.2 hPa - - - -
1788303809 30° C 33% 1020.2 hPa - - - -
1788302909 29.44° C 35% 1020.2 hPa - - - -
1788302009 28.89° C 35% 1020.5 hPa - - - -
1788301108 28.89° C 34% 1020.2 hPa - - - -
1788300208 30° C 33% 1020.2 hPa - - - -
1788299308 29.44° C 34% 1020.3 hPa - - - -
1788298408 31.11° C 31% 1020.4 hPa - - - -
1788297508 30.56° C 32% 1020.7 hPa - - - -
1788296608 30.56° C 32% 1020.8 hPa - - - -
1788295707 31.11° C 31% 1020.8 hPa - - - -
1788294807 31.11° C 31% 1020.8 hPa - - - -
1788293907 31.67° C 31% 1020.9 hPa - - - -
1788293007 31.67° C 31% 1020.9 hPa - - - -
1788292107 31.11° C 32% 1020.5 hPa - - - -
1788291206 30.56° C 33% 1020.4 hPa - - - -
1788290306 29.44° C 33% 1020.4 hPa - - - -
1788289406 30.56° C 32% 1020.6 hPa - - - -
1788288506 30.56° C 32% 1020.3 hPa - - - -
1788287606 31.67° C 31% 1020.3 hPa - - - -

* Rain since midnight (hover to see other rain measurements)
** Current wind speed in m/s (hover to see current wind gust speed)